+ View the NASA Portal
+ Center for Near-Earth Object Studies
IMPORTANT:
The SSD Announcement email list is now available. Major changes are coming in the near future, including possible hostname and/or URL changes. To be notified of such changes, subscribe to this email list.
Please visit
this page
for more details.
Don't show this message again
JPL Small-Body Database Browser
Search:
[
help
]
379952 (2012 PV14)
Classification:
Main-belt Asteroid
SPK-ID:
2379952
[
Ephemeris
|
Orbit Diagram
|
Orbital Elements
|
Mission Design
|
Physical Parameters
|
Discovery Circumstances
|
Close-Approach Data
]
[ show orbit diagram ]
Orbital Elements at Epoch 2458600.5 (2019-Apr-27.0) TDB
Reference:
JPL 17
(heliocentric ecliptic J2000)
Element
Value
Uncertainty (1-sigma)
Units
e
.119378128177216
6.2757e-08
a
3.069870749612531
7.5173e-08
au
q
2.703395325777801
1.9767e-07
au
i
6.083151428332791
7.7749e-06
deg
node
305.5824697207568
7.0258e-05
deg
peri
330.7051446308709
7.8103e-05
deg
M
139.4885672002289
3.5006e-05
deg
t
p
2457839.272138099791
(2017-Mar-26.77213810)
0.00018817
TDB
period
1964.620009973301
5.38
7.2163e-05
1.976e-07
d
yr
n
.1832415419635741
6.7307e-09
deg/d
Q
3.436346173447262
8.4147e-08
au
Orbit Determination Parameters
# obs. used (total)
139
data-arc span
3301 days (9.04 yr)
first obs. used
2010-01-11
last obs. used
2019-01-25
planetary ephem.
DE431
SB-pert. ephem.
SB431-N16
condition code
0
norm. resid. RMS
.56319
source
ORB
producer
Otto Matic
solution date
2019-Jul-14 14:46:15
Additional Information
Earth MOID
= 1.68851 au
Jupiter MOID
= 1.71557 au
T_jup
= 3.212
[ show covariance matrix ]
[
Ephemeris
|
Orbit Diagram
|
Orbital Elements
|
Mission Design
|
Physical Parameters
|
Discovery Circumstances
|
Close-Approach Data
]
Physical Parameter Table
Parameter
Symbol
Value
Units
Sigma
Reference
Notes
absolute magnitude
H
15.7
n/a
MPO460490
379952 (2012 PV14)
Discovered 2010-Jan-11 by Spacewatch at Kitt Peak
Reference:
Last Updated:
2013-11-20
[ show close-approach data ]
[
Ephemeris
|
Orbit Diagram
|
Orbital Elements
|
Mission Design
|
Physical Parameters
|
Discovery Circumstances
|
Close-Approach Data
]
2019-Dec-05 15:40 UT
(server date/time)
Site Manager:
Ryan S. Park
Webmaster
:
Alan B. Chamberlin